• In Uzbekistan
  • List of Countries
  • For 7 days
  • Water Temperature
  • Satellite Maps
  • Weather Map
  • Weather Widgets
  • user-avatar
    Login

    Hourly Weather Kwaszenina

    Today, 21 September, Friday

    Time Temperature Precipitation Wind Pressure Humidity
    00:00 +15°C° 0 mm 1 mps 727 mmHg 77%
    01:00 +15°C° 0 mm 1 mps 726 mmHg 78%
    02:00 +15°C° 0 mm 1 mps 726 mmHg 79%
    03:00 +15°C° 0 mm 1 mps 726 mmHg 80%
    04:00 +15°C° 0 mm 1 mps 726 mmHg 81%
    05:00 +14°C° 0 mm 1 mps 726 mmHg 81%
    06:00 +15°C° 0 mm 1 mps 726 mmHg 79%
    07:00 +16°C° 0 mm 1 mps 726 mmHg 77%
    08:00 +18°C° 0 mm 1 mps 726 mmHg 72%
    09:00 +19°C° 0 mm 2 mps 726 mmHg 64%
    10:00 +21°C° 0 mm 2 mps 726 mmHg 56%
    11:00 +24°C° 0 mm 2 mps 726 mmHg 49%
    12:00 +25°C° 0 mm 2 mps 726 mmHg 47%
    13:00 +26°C° 0 mm 3 mps 726 mmHg 44%
    14:00 +26°C° 0 mm 3 mps 725 mmHg 42%
    15:00 +26°C° 0 mm 3 mps 725 mmHg 47%
    16:00 +25°C° 0 mm 3 mps 724 mmHg 51%
    17:00 +24°C° 0 mm 2 mps 724 mmHg 56%
    18:00 +21°C° 0 mm 2 mps 724 mmHg 60%
    19:00 +19°C° 0 mm 2 mps 723 mmHg 65%
    20:00 +17°C° 0 mm 2 mps 723 mmHg 69%
    21:00 +17°C° 0 mm 3 mps 723 mmHg 69%
    22:00 +17°C° 0 mm 3 mps 723 mmHg 69%
    23:00 +17°C° 0 mm 3 mps 723 mmHg 69%

    Tomorrow, 22 September, Saturday

    Time Temperature Precipitation Wind Pressure Humidity
    00:00 +17°C° 0 mm 3 mps 723 mmHg 67%
    01:00 +17°C° 0 mm 3 mps 723 mmHg 64%
    02:00 +17°C° 0 mm 4 mps 723 mmHg 62%
    03:00 +17°C° 0 mm 4 mps 723 mmHg 59%
    04:00 +18°C° 0 mm 4 mps 723 mmHg 56%
    05:00 +18°C° 0 mm 4 mps 723 mmHg 54%
    06:00 +17°C° 0.4 mm 4 mps 724 mmHg 63%
    07:00 +15°C° 0.4 mm 4 mps 724 mmHg 72%
    08:00 +15°C° 0.4 mm 4 mps 725 mmHg 82%
    09:00 +14°C° 0.5 mm 3 mps 725 mmHg 84%
    10:00 +13°C° 0.5 mm 3 mps 726 mmHg 86%
    11:00 +13°C° 0.5 mm 2 mps 726 mmHg 88%
    12:00 +13°C° 1.2 mm 2 mps 726 mmHg 88%
    13:00 +12°C° 1.2 mm 2 mps 727 mmHg 89%
    14:00 +12°C° 1.2 mm 2 mps 727 mmHg 89%
    15:00 +10°C° 0.7 mm 2 mps 727 mmHg 89%
    16:00 +11°C° 0.7 mm 1 mps 726 mmHg 89%
    17:00 +11°C° 0.7 mm 1 mps 726 mmHg 89%
    18:00 +10°C° 0 mm 1 mps 726 mmHg 90%
    19:00 +9°C° 0 mm 2 mps 726 mmHg 90%
    20:00 +8°C° 0 mm 2 mps 726 mmHg 90%
    21:00 +8°C° 0 mm 2 mps 727 mmHg 88%
    22:00 +8°C° 0 mm 2 mps 727 mmHg 87%
    23:00 +8°C° 0 mm 2 mps 727 mmHg 85%

    Day after tomorrow, 23 September, Sunday

    Time Temperature Precipitation Wind Pressure Humidity
    00:00 +8°C° 0 mm 2 mps 727 mmHg 84%
    01:00 +8°C° 0 mm 2 mps 727 mmHg 84%
    02:00 +8°C° 0 mm 2 mps 727 mmHg 84%
    03:00 +8°C° 0 mm 2 mps 727 mmHg 85%
    04:00 +8°C° 0 mm 2 mps 727 mmHg 86%
    05:00 +7°C° 0 mm 2 mps 727 mmHg 88%
    06:00 +8°C° 0 mm 2 mps 727 mmHg 86%
    07:00 +8°C° 0 mm 3 mps 727 mmHg 84%
    08:00 +9°C° 0 mm 3 mps 727 mmHg 82%
    09:00 +11°C° 0 mm 3 mps 727 mmHg 75%
    10:00 +12°C° 0 mm 4 mps 727 mmHg 68%
    11:00 +14°C° 0 mm 4 mps 727 mmHg 61%
    12:00 +14°C° 0.1 mm 4 mps 727 mmHg 60%
    13:00 +15°C° 0.1 mm 4 mps 727 mmHg 59%
    14:00 +15°C° 0.1 mm 4 mps 726 mmHg 59%
    15:00 +16°C° 0.1 mm 3 mps 726 mmHg 63%
    16:00 +14°C° 0.1 mm 3 mps 726 mmHg 67%
    17:00 +14°C° 0.1 mm 2 mps 726 mmHg 71%
    18:00 +14°C° 0 mm 2 mps 725 mmHg 73%
    19:00 +13°C° 0 mm 2 mps 725 mmHg 74%
    20:00 +12°C° 0 mm 2 mps 725 mmHg 75%
    21:00 +11°C° 0 mm 3 mps 724 mmHg 78%
    22:00 +11°C° 0 mm 3 mps 724 mmHg 80%
    23:00 +11°C° 0 mm 4 mps 723 mmHg 83%

    24 September, Monday

    Time Temperature Precipitation Wind Pressure Humidity
    00:00 +10°C° 0 mm 5 mps 721 mmHg 78%
    01:00 +11°C° 0 mm 6 mps 720 mmHg 74%
    02:00 +11°C° 0 mm 7 mps 719 mmHg 69%
    03:00 +12°C° 0.6 mm 8 mps 717 mmHg 68%
    04:00 +12°C° 0.6 mm 9 mps 716 mmHg 68%
    05:00 +12°C° 0.6 mm 10 mps 715 mmHg 67%
    06:00 +12°C° 2.2 mm 10 mps 714 mmHg 74%
    07:00 +11°C° 2.2 mm 10 mps 713 mmHg 80%
    08:00 +11°C° 2.2 mm 10 mps 712 mmHg 86%
    09:00 +9°C° 0.9 mm 10 mps 713 mmHg 84%
    10:00 +8°C° 0.9 mm 10 mps 715 mmHg 83%
    11:00 +7°C° 0.9 mm 11 mps 716 mmHg 81%
    12:00 +7°C° 0.1 mm 10 mps 718 mmHg 79%
    13:00 +7°C° 0.1 mm 9 mps 720 mmHg 77%
    14:00 +9°C° 0.1 mm 8 mps 722 mmHg 76%
    15:00 +9°C° 0.2 mm 7 mps 722 mmHg 75%
    16:00 +9°C° 0.2 mm 7 mps 723 mmHg 74%
    17:00 +9°C° 0.2 mm 6 mps 723 mmHg 72%
    18:00 +8°C° 0.1 mm 6 mps 724 mmHg 74%
    19:00 +7°C° 0.1 mm 5 mps 725 mmHg 75%
    20:00 +6°C° 0.1 mm 5 mps 726 mmHg 77%
    21:00 +5°C° 0 mm 5 mps 726 mmHg 76%
    22:00 +5°C° 0 mm 5 mps 727 mmHg 76%
    23:00 +5°C° 0 mm 5 mps 727 mmHg 75%

    25 September, Tuesday

    Time Temperature Precipitation Wind Pressure Humidity
    00:00 +3°C° 0 mm 5 mps 727 mmHg 77%
    01:00 +3°C° 0 mm 5 mps 728 mmHg 78%
    02:00 +3°C° 0 mm 5 mps 728 mmHg 80%
    03:00 +3°C° 0 mm 5 mps 728 mmHg 81%
    04:00 +2°C° 0 mm 5 mps 729 mmHg 82%
    05:00 +3°C° 0 mm 4 mps 729 mmHg 83%
    06:00 +2°C° 0 mm 5 mps 730 mmHg 80%
    07:00 +3°C° 0 mm 5 mps 731 mmHg 77%
    08:00 +3°C° 0 mm 6 mps 731 mmHg 73%
    09:00 +4°C° 0 mm 6 mps 732 mmHg 69%
    10:00 +7°C° 0 mm 6 mps 732 mmHg 64%
    11:00 +8°C° 0 mm 7 mps 733 mmHg 59%
    12:00 +8°C° 0.2 mm 7 mps 733 mmHg 57%
    13:00 +8°C° 0.2 mm 7 mps 733 mmHg 55%
    14:00 +9°C° 0.2 mm 7 mps 733 mmHg 53%
    15:00 +8°C° 0.1 mm 6 mps 733 mmHg 55%
    16:00 +8°C° 0.1 mm 6 mps 733 mmHg 57%
    17:00 +7°C° 0.1 mm 6 mps 734 mmHg 59%
    18:00 +6°C° 0 mm 5 mps 734 mmHg 64%
    19:00 +5°C° 0 mm 3 mps 735 mmHg 70%
    20:00 +4°C° 0 mm 2 mps 735 mmHg 75%
    21:00 +4°C° 0 mm 2 mps 735 mmHg 75%
    22:00 +4°C° 0 mm 2 mps 735 mmHg 74%
    23:00 +3°C° 0 mm 2 mps 736 mmHg 74%

    26 September, Wednesday

    Time Temperature Precipitation Wind Pressure Humidity
    00:00 +3°C° 0 mm 2 mps 736 mmHg 74%
    01:00 +2°C° 0 mm 3 mps 736 mmHg 75%
    02:00 +2°C° 0 mm 3 mps 736 mmHg 75%
    03:00 +2°C° 0 mm 3 mps 735 mmHg 74%
    04:00 +2°C° 0 mm 3 mps 735 mmHg 73%
    05:00 +3°C° 0 mm 3 mps 735 mmHg 72%
    06:00 +3°C° 0 mm 4 mps 735 mmHg 71%
    07:00 +4°C° 0 mm 4 mps 735 mmHg 70%
    08:00 +5°C° 0 mm 4 mps 735 mmHg 68%
    09:00 +6°C° 0 mm 5 mps 735 mmHg 66%
    10:00 +7°C° 0 mm 5 mps 735 mmHg 63%
    11:00 +8°C° 0 mm 5 mps 735 mmHg 61%
    12:00 +9°C° 0 mm 6 mps 734 mmHg 57%
    13:00 +10°C° 0 mm 6 mps 734 mmHg 53%
    14:00 +11°C° 0 mm 6 mps 734 mmHg 49%
    15:00 +12°C° 0 mm 5 mps 733 mmHg 51%
    16:00 +12°C° 0 mm 4 mps 733 mmHg 53%
    17:00 +11°C° 0 mm 3 mps 733 mmHg 55%
    18:00 +10°C° 0 mm 3 mps 733 mmHg 57%
    19:00 +9°C° 0 mm 2 mps 733 mmHg 59%
    20:00 +8°C° 0 mm 2 mps 733 mmHg 61%
    21:00 +8°C° 0 mm 2 mps 733 mmHg 62%
    22:00 +7°C° 0 mm 2 mps 733 mmHg 64%
    23:00 +6°C° 0 mm 2 mps 733 mmHg 65%
    Show more